User: anonymous   Login
Location: Unspecified
(0.0000°N, 0.0000°E)
Time: 04:46:29
(UTC+02:00)
Language:

AO-7 - Orbit

View from above orbital plane
View from above orbital plane
View from above satellite
View from above satellite

Ground track
Ground track

The orbit data is extracted from the following two-line orbital elements,

1 07530U 74089B   14297.81765480 -.00000022  00000-0  13671-3 0  1038
2 07530 101.4897 275.4542 0012273 043.2233 018.7894 12.53608120827763
Epoch (UTC): 24 October 2014 19:37:25
Eccentricity: 0.0012273
inclination: 101.4897°
perigee height: 1440 km
apogee height: 1459 km
right ascension of ascending node: 275.4542°
argument of perigee: 43.2233°
revolutions per day: 12.53608120
mean anomaly at epoch: 18.7894°
orbit number at epoch: 82776

The dashed part of the orbit path shows where the satellite is in the earth's shadow,  

DLR